Weather History for Whiteville, NC

Change the Weather History Date:

Wednesday, February 5, 2014

  Actual Average (KLBT) Record (KLBT)
Temperature  
Mean Temperature 56 °F 45 °F  
Max Temperature 71 °F 56 °F 78 °F (2008)
Min Temperature 41 °F 34 °F 20 °F (2009)
Degree Days  
Heating Degree Days 9 20  
Month to date heating degree days 102  
Since 1 July heating degree days 1821  
Cooling Degree Days 0 0  
Month to date cooling degree days 0  
Year to date cooling degree days 1  
Growing Degree Days 6 (Base 50)    
Moisture  
Dew Point 50 °F    
Average Humidity 85    
Maximum Humidity 99    
Minimum Humidity 54    
Precipitation  
Precipitation 0.16 in 0.09 in 0.49 in (2011)
Month to date precipitation 0.42  
Year to date precipitation 3.39  
Sea Level Pressure  
Sea Level Pressure 29.93 in    
Wind  
Wind Speed 2 mph (SW)    
Max Wind Speed 14 mph    
Max Gust Speed 23 mph    
Visibility 6 miles    
Events Fog , Rain    
T = Trace of Precipitation, MM = Missing Value Source: NWS Daily Summary

Daily Weather History Graph

Daily Weather History Graph

Search for Another Location

Airport:

Trip Planner

Search our weather history database for the weather conditions in past years. The results will help you decide how hot, cold, wet, or windy it might be!

Date:

Astronomy

Feb. 05, 2014 Rise Set
Actual Time 7:09 AM EST 5:48 PM EST
Civil Twilight 6:43 AM EST 6:15 PM EST
Nautical Twilight 6:13 AM EST 6:44 PM EST
Astronomical Twilight 5:43 AM EST 7:14 PM EST
Moon 10:41 AM EST (2/5) No Moon Set
Length of Visible Light 11h 31m
Length of Day
10h 39m
Waxing Crescent, 39% of the Moon is Illuminated
Feb 5
Waxing Crescent
Feb 6
First Quarter
Feb 14
Full
Feb 22
Last Quarter
Mar 1
New

Hourly Weather History & Observations

Time (EST) Temp. Windchill Dew Point Humidity Pressure Visibility Wind Dir Wind Speed Gust Speed Precip Events Conditions
12:15 AM 41.9 °F - 41.0 °F 97% 30.07 in 0.8 mi Calm Calm - N/A   Overcast
12:35 AM 41.9 °F - 41.2 °F 97% 30.07 in 0.8 mi Calm Calm - N/A   Overcast
12:55 AM 41.9 °F - 41.2 °F 97% 30.06 in 0.5 mi Calm Calm - N/A Fog Fog
1:15 AM 41.9 °F - 41.2 °F 97% 30.05 in 0.5 mi Calm Calm - N/A Fog Fog
1:35 AM 41.9 °F - 41.4 °F 98% 30.05 in 0.5 mi Calm Calm - N/A   Overcast
1:55 AM 41.9 °F - 41.4 °F 98% 30.05 in 0.5 mi Calm Calm - N/A Fog Fog
2:15 AM 41.9 °F - 41.2 °F 97% 30.04 in 0.5 mi Calm Calm - N/A Fog Fog
2:35 AM 41.9 °F - 41.4 °F 98% 30.03 in 0.5 mi Calm Calm - N/A Fog Fog
2:55 AM 41.9 °F - 41.2 °F 97% 30.03 in 0.5 mi Calm Calm - N/A Fog Fog
3:15 AM 41.9 °F - 41.2 °F 97% 30.01 in 0.5 mi Calm Calm - N/A Fog Fog
3:35 AM 41.9 °F - 41.2 °F 97% 30.00 in 0.2 mi Calm Calm - N/A Fog Fog
3:55 AM 41.9 °F - 41.2 °F 97% 29.99 in 0.5 mi Calm Calm - 0.01 in Rain Light Rain
4:15 AM 41.9 °F - 41.4 °F 98% 29.98 in 0.8 mi Calm Calm - 0.01 in Rain Light Rain
4:35 AM 42.1 °F - 41.5 °F 98% 29.97 in 2.0 mi Calm Calm - 0.05 in   Overcast
4:55 AM 42.3 °F - 41.9 °F 99% 29.96 in 2.0 mi Calm Calm - 0.05 in   Overcast
5:15 AM 42.3 °F - 41.9 °F 99% 29.97 in 2.0 mi Calm Calm - N/A   Overcast
5:35 AM 42.4 °F - 41.9 °F 98% 29.95 in 2.0 mi Calm Calm - N/A   Overcast
5:55 AM 42.6 °F 39.9 °F 42.1 °F 98% 29.94 in 1.2 mi SE 4.6 mph - N/A   Overcast
6:15 AM 42.8 °F 41.1 °F 42.3 °F 98% 29.94 in 0.8 mi SE 3.5 mph - N/A   Overcast
6:35 AM 43.2 °F - 42.8 °F 99% 29.93 in 0.8 mi Calm Calm - N/A   Overcast
6:55 AM 43.7 °F - 43.0 °F 97% 29.93 in 0.8 mi Calm Calm - N/A   Overcast
7:15 AM 44.1 °F - 43.5 °F 98% 29.93 in 0.2 mi Calm Calm - N/A Fog Fog
7:35 AM 44.8 °F - 44.2 °F 98% 29.94 in 0.2 mi Calm Calm - N/A Fog Fog
7:55 AM 45.3 °F 44.0 °F 44.8 °F 98% 29.94 in 0.2 mi South 3.5 mph - N/A Fog Fog
8:15 AM 46.8 °F - 46.2 °F 98% 29.94 in 0.2 mi South 3.5 mph - 0.01 in Fog Fog
8:35 AM 48.0 °F - 47.5 °F 98% 29.94 in 0.2 mi SSW 4.6 mph - 0.01 in Fog Fog
8:55 AM 49.5 °F - 48.9 °F 98% 29.94 in 0.2 mi SW 3.5 mph - 0.01 in Fog Fog
9:15 AM 50.0 °F - 49.5 °F 98% 29.94 in 0.2 mi Calm Calm - N/A Fog Fog
9:35 AM 51.1 °F - 50.5 °F 98% 29.94 in 0.2 mi Calm Calm - N/A Fog Fog
9:55 AM 52.2 °F - 51.8 °F 99% 29.93 in 0.2 mi SSW 3.5 mph - N/A Fog Fog
10:15 AM 53.8 °F - 53.4 °F 99% 29.93 in 0.5 mi South 6.9 mph - N/A   Light Drizzle
10:35 AM 54.5 °F - 54.0 °F 98% 29.92 in 0.2 mi SSW 6.9 mph - N/A Rain Light Rain
10:55 AM 55.6 °F - 55.2 °F 99% 29.90 in 0.5 mi SSW 5.8 mph - N/A Rain Light Rain
11:15 AM 59.2 °F - 58.8 °F 99% 29.89 in 5.0 mi South 10.4 mph - N/A Rain Light Rain
11:35 AM 60.8 °F - 60.1 °F 97% 29.89 in 5.0 mi SSW 8.1 mph - N/A Rain Light Rain
11:55 AM 61.5 °F - 61.0 °F 98% 29.88 in 4.0 mi SW 9.2 mph - 0.03 in Rain Light Rain
12:15 PM 63.0 °F - 62.4 °F 98% 29.85 in 7.0 mi South 13.8 mph 19.6 mph 0.06 in   Overcast
12:35 PM 64.8 °F - 63.9 °F 97% 29.85 in 10.0 mi SSW 11.5 mph 19.6 mph 0.06 in   Overcast
12:55 PM 65.8 °F - 64.8 °F 96% 29.84 in 10.0 mi SW 12.7 mph 17.3 mph 0.06 in   Drizzle
1:15 PM 66.7 °F - 64.8 °F 93% 29.83 in 10.0 mi SW 9.2 mph 21.9 mph N/A   Overcast
1:35 PM 67.8 °F - 65.1 °F 91% 29.82 in 10.0 mi SW 10.4 mph - N/A   Mostly Cloudy
1:55 PM 70.3 °F - 63.9 °F 80% 29.81 in 10.0 mi SW 13.8 mph 23.0 mph N/A   Mostly Cloudy
2:15 PM 70.5 °F - 63.0 °F 77% 29.81 in 10.0 mi SW 10.4 mph 20.7 mph N/A   Mostly Cloudy
2:35 PM 70.9 °F - 62.8 °F 75% 29.82 in 10.0 mi WSW 6.9 mph - N/A   Overcast
2:55 PM 70.9 °F - 62.6 °F 75% 29.82 in 10.0 mi WSW 5.8 mph - N/A   Mostly Cloudy
3:15 PM 70.7 °F - 62.1 °F 74% 29.81 in 10.0 mi WSW 8.1 mph - N/A   Scattered Clouds
3:35 PM 71.1 °F - 61.7 °F 72% 29.82 in 10.0 mi WSW 6.9 mph - N/A   Scattered Clouds
3:55 PM 70.9 °F - 61.9 °F 73% 29.82 in 10.0 mi West 4.6 mph - N/A   Scattered Clouds
4:15 PM 71.1 °F - 61.0 °F 70% 29.82 in 10.0 mi West 6.9 mph - N/A   Clear
4:35 PM 69.8 °F - 61.2 °F 74% 29.83 in 10.0 mi West 5.8 mph - N/A   Clear
4:55 PM 68.5 °F - 60.6 °F 76% 29.84 in 10.0 mi West 4.6 mph - N/A   Clear
5:15 PM 65.8 °F - 58.8 °F 78% 29.85 in 10.0 mi West 6.9 mph - N/A   Clear
5:35 PM 64.8 °F - 57.4 °F 77% 29.86 in 10.0 mi West 3.5 mph - N/A   Clear
5:55 PM 64.0 °F - 55.9 °F 75% 29.87 in 10.0 mi WSW 4.6 mph - N/A   Clear
6:15 PM 62.4 °F - 55.4 °F 78% 29.88 in 10.0 mi Calm Calm - N/A   Clear
6:35 PM 61.0 °F - 54.9 °F 80% 29.89 in 10.0 mi Calm Calm - N/A   Clear
6:55 PM 60.1 °F - 54.0 °F 80% 29.90 in 10.0 mi West 3.5 mph - N/A   Clear
7:15 PM 59.9 °F - 52.2 °F 76% 29.91 in 10.0 mi West 3.5 mph - N/A   Clear
7:35 PM 59.0 °F - 49.1 °F 70% 29.92 in 10.0 mi Calm Calm - N/A   Clear
7:55 PM 58.6 °F - 46.0 °F 63% 29.93 in 10.0 mi Calm Calm - N/A   Clear
8:15 PM 57.7 °F - 43.3 °F 59% 29.93 in 10.0 mi Calm Calm - N/A   Clear
8:35 PM 56.3 °F - 42.8 °F 61% 29.93 in 10.0 mi Calm Calm - N/A   Clear
8:55 PM 56.5 °F - 41.7 °F 58% 29.94 in 10.0 mi West 5.8 mph - N/A   Clear
9:15 PM 57.4 °F - 41.0 °F 54% 29.95 in 10.0 mi West 3.5 mph - N/A   Clear
9:35 PM 57.2 °F - 40.6 °F 54% 29.97 in 10.0 mi West 5.8 mph - N/A   Clear
9:55 PM 56.5 °F - 41.2 °F 57% 29.97 in 10.0 mi West 5.8 mph - N/A   Clear
10:15 PM 55.4 °F - 41.2 °F 59% 29.98 in 10.0 mi West 4.6 mph - N/A   Clear
10:35 PM 54.9 °F - 41.4 °F 60% 29.99 in 10.0 mi West 4.6 mph - N/A   Clear
10:55 PM 54.0 °F - 41.5 °F 63% 30.00 in 10.0 mi Calm Calm - N/A   Clear
11:15 PM 53.8 °F - 41.5 °F 63% 30.01 in 10.0 mi Calm Calm - N/A   Clear
11:35 PM 53.2 °F - 41.7 °F 65% 30.01 in 10.0 mi West 3.5 mph - N/A   Clear
11:55 PM 51.8 °F - 42.1 °F 69% 30.02 in 10.0 mi NNW 3.5 mph - N/A   Clear